一网星座-0133星 (ONEWEB-0133 )

导读 | 星芒AI

ONEWEB-0133 是 OneWeb 卫星星座计划中的一颗低轨通信卫星,旨在为全球提供高速互联网服务。该卫星由 OneWeb 公司部署,采用先进通信技术,支持偏远地区和航空、航海等移动场景的网络连接。作为 OneWeb 扩展其卫星网络的一部分,ONEWEB-0133 有助于提升全球互联网覆盖范围和连接质量。

基本信息
目录编号:
47279
目录名称:
ONEWEB-0133
国际标识:
2020-100X
轨道中心:
EARTH
卫星名称:
一网星座-0133星
卫星全名:
一网星座-0133星 (ONEWEB-0133 )
卫星状态:
在轨 (已飞行1765 天)
发射日期:
2020-12-18 UTC
国别 :
英国 (GB)
星等 :
--
轨道信息
数据来源 国际轨道数据
星历时间: 2025-10-18T03:08:48+0800
11小时前
查看轨道信息
半长轴: 7591.86km
偏心率: 0.0001702
轨道倾角: 87.895°
近地点辐角 106.933°
升交点赤经 38.795°
平近点角 253.198°
近地点: 1212.432km
远地点: 1215.018km
周期: 109.719分钟
每日圈数: 13.124432
详细信息
平衡模式:
三轴稳定
覆盖范围:
全球
运营商:
一网卫星公司
运营商所在国:
英国
制造商(研发单位):
一网卫星公司
制造商所在国:
英国
使用方式:
暂无
卫星简介
OneWeb卫星网络由648颗重约125公斤的微型卫星组成,运行在1200公里的轨道上。 每颗卫星都能够提供至少每秒8千兆位的吞吐量,以使用其高吞吐量的Ku频段有效载荷为家庭和移动平台提供互联网接入。该卫星仍在工作。
2D轨道图
3D轨道图
轨道高度分析图
轨道倾角分析图
轨道综合分析图
查看轨道综合分析图